アトラス彗星

C/2022 QE78 ( ATLAS )

English version
Home page
Updated on January 22, 2023

---------------------------------------------------------------------

・ プロフィール

発見日 2022年8月27日
発見光度 19.4等
発見者 Asteroid Terrestrial-Impact Last Alert System (ATLAS) search program

・ 写真集

・ 軌道要素

Epoch 2023 Feb. 25.0 TT = JDT 2460000.5
T 2025 Sept. 10.33181 TT                                Rudenko
q   5.4830475            (2000.0)            P               Q
z  -0.0005011      Peri.    0.34212     -0.50326783     -0.69313552
 +/-0.0000125      Node   119.94180     +0.79140307     -0.60949670
e   1.0027474      Incl.   36.54890     +0.34699088     +0.38480766
>From 376 observations 2022 Aug. 27-2023 Jan. 21, mean residual 0".4.

・ 星図

・ 光度変化

        m1 = 4.0 + 5 logΔ + 10.0 log r

---------------------------------------------------------------------

軌道要素はM.P.E.C. 2023-B57に掲載されたものです。
星図はステラナビゲータ Ver.10 (アストロアーツ) で作成したものです。
光度グラフはComet for Windowsで作成したものです。

---------------------------------------------------------------------

Copyright(C) Seiichi Yoshida (comet@aerith.net). All rights reserved.